Weather History for Lyndonville, VT

Change the Weather History Date:

Monday, November 19, 2012

  Actual Average (K1V4) Record (K1V4)
Temperature  
Mean Temperature 30 °F 35 °F  
Max Temperature 42 °F 43 °F 66 °F (1941)
Min Temperature 19 °F 27 °F 1 °F (1936)
Degree Days  
Heating Degree Days 34 30  
Month to date heating degree days 507  
Since 1 July heating degree days 1294  
Moisture  
Dew Point 20 °F    
Average Humidity 71    
Maximum Humidity 91    
Minimum Humidity 41    
Precipitation  
Precipitation 0.00 in 0.11 in 1.51 in (1932)
Month to date precipitation 2.18  
Year to date precipitation 35.20  
Sea Level Pressure  
Sea Level Pressure 30.44 in    
Wind  
Wind Speed 0 mph (South)    
Max Wind Speed 5 mph    
Max Gust Speed -    
Visibility 9 miles    
Events      
T = Trace of Precipitation, MM = Missing Value Source: NWS Daily Summary

Daily Weather History Graph

Daily Weather History Graph

Search for Another Location

Airport:

Trip Planner

Search our weather history database for the weather conditions in past years. The results will help you decide how hot, cold, wet, or windy it might be!

Date:

Astronomy

Nov. 19, 2012 Rise Set
Actual Time 6:50 AM EST 4:16 PM EST
Civil Twilight 6:18 AM EST 4:48 PM EST
Nautical Twilight 5:42 AM EST 5:23 PM EST
Astronomical Twilight 5:08 AM EST 5:58 PM EST
Moon 11:46 AM EST (11/19) 10:46 PM EST (11/19)
Length of Visible Light 10h 29m
Length of Day
9h 25m
Waxing Crescent, 40% of the Moon is Illuminated
Nov 19
Waxing Crescent
Nov 20
First Quarter
Nov 28
Full
Dec 6
Last Quarter
Dec 13
New

Hourly Weather History & Observations

Time (EST) Temp. Windchill Dew Point Humidity Pressure Visibility Wind Dir Wind Speed Gust Speed Precip Events Conditions
12:15 AM 24.8 °F - 20.8 °F 85% 30.60 in 10.0 mi Calm Calm - N/A   Clear
12:55 AM 23.9 °F - 20.3 °F 86% 30.59 in 10.0 mi Calm Calm - N/A   Clear
1:15 AM 25.7 °F - 21.2 °F 83% 30.58 in 10.0 mi Calm Calm - N/A   Clear
1:55 AM 23.2 °F - 19.8 °F 87% 30.58 in 10.0 mi Calm Calm - N/A   Clear
2:15 AM 23.2 °F - 20.3 °F 89% 30.57 in 10.0 mi Calm Calm - N/A   Clear
2:35 AM 24.4 °F - 21.0 °F 87% 30.57 in 10.0 mi Calm Calm - N/A   Clear
2:55 AM 23.0 °F - 19.9 °F 88% 30.57 in 10.0 mi Calm Calm - N/A   Clear
3:15 AM 21.2 °F - 18.3 °F 89% 30.56 in 10.0 mi Calm Calm - N/A   Clear
3:35 AM 22.3 °F - 19.8 °F 90% 30.56 in 7.0 mi Calm Calm - N/A   Clear
3:55 AM 22.5 °F - 20.1 °F 91% 30.56 in 7.0 mi Calm Calm - N/A   Clear
4:15 AM 20.8 °F - 18.1 °F 89% 30.56 in 5.0 mi Calm Calm - N/A   Clear
4:35 AM 22.1 °F - 19.8 °F 91% 30.56 in 7.0 mi Calm Calm - N/A   Clear
4:55 AM 21.7 °F - 19.2 °F 90% 30.56 in 7.0 mi Calm Calm - N/A   Clear
5:15 AM 21.6 °F - 19.0 °F 90% 30.56 in 7.0 mi Calm Calm - N/A   Clear
5:35 AM 20.5 °F - 17.8 °F 89% 30.56 in 7.0 mi Calm Calm - N/A   Clear
5:55 AM 19.4 °F - 16.5 °F 89% 30.55 in 7.0 mi Calm Calm - N/A   Clear
6:15 AM 20.8 °F - 18.1 °F 89% 30.55 in 5.0 mi Calm Calm - N/A   Clear
6:35 AM 21.2 °F - 18.5 °F 89% 30.54 in 5.0 mi Calm Calm - N/A   Clear
6:55 AM 21.2 °F - 18.5 °F 89% 30.54 in 5.0 mi Calm Calm - N/A   Clear
7:15 AM 21.4 °F - 18.7 °F 89% 30.54 in 5.0 mi Calm Calm - N/A   Clear
7:35 AM 20.5 °F - 17.6 °F 89% 30.54 in 7.0 mi Calm Calm - N/A   Clear
7:55 AM 22.1 °F - 19.2 °F 89% 30.54 in 5.0 mi Calm Calm - N/A   Clear
8:15 AM 22.8 °F - 19.9 °F 89% 30.53 in 7.0 mi Calm Calm - N/A   Clear
8:35 AM 23.9 °F - 21.2 °F 89% 30.53 in 7.0 mi Calm Calm - N/A   Clear
8:55 AM 26.1 °F - 23.4 °F 90% 30.52 in 7.0 mi Calm Calm - N/A   Clear
9:15 AM 25.9 °F - 22.6 °F 88% 30.52 in 10.0 mi Calm Calm - N/A   Clear
9:55 AM 29.5 °F - 22.3 °F 75% 30.51 in 10.0 mi Calm Calm - N/A   Clear
10:15 AM 32.4 °F - 23.5 °F 70% 30.50 in 10.0 mi Calm Calm - N/A   Clear
10:55 AM 34.5 °F - 20.5 °F 57% 30.48 in 10.0 mi Calm Calm - N/A   Clear
11:15 AM 36.3 °F 33.7 °F 19.9 °F 52% 30.47 in 10.0 mi ESE 3.5 mph - N/A   Clear
11:35 AM 37.2 °F - 19.0 °F 48% 30.47 in 10.0 mi Calm Calm - N/A   Clear
11:55 AM 38.7 °F - 19.6 °F 46% 30.45 in 10.0 mi Calm Calm - N/A   Clear
12:15 PM 38.8 °F 36.5 °F 18.9 °F 45% 30.44 in 10.0 mi South 3.5 mph - N/A   Clear
12:35 PM 40.3 °F 37.1 °F 19.4 °F 43% 30.43 in 10.0 mi South 4.6 mph - N/A   Clear
12:55 PM 41.0 °F 39.0 °F 20.5 °F 44% 30.43 in 10.0 mi WSW 3.5 mph - N/A   Clear
1:15 PM 42.1 °F - 20.3 °F 42% 30.41 in 10.0 mi Calm Calm - N/A   Clear
1:35 PM 42.6 °F - 20.5 °F 41% 30.40 in 10.0 mi Calm Calm - N/A   Clear
1:55 PM 42.6 °F - 20.1 °F 41% 30.39 in 10.0 mi Calm Calm - N/A   Clear
2:15 PM 42.4 °F - 20.1 °F 41% 30.38 in 10.0 mi Calm Calm - N/A   Clear
2:35 PM 42.8 °F - 20.5 °F 41% 30.38 in 10.0 mi Calm Calm - N/A   Clear
2:55 PM 42.8 °F - 20.3 °F 41% 30.38 in 10.0 mi Calm Calm - N/A   Clear
3:15 PM 42.8 °F - 20.3 °F 41% 30.38 in 10.0 mi Calm Calm - N/A   Clear
3:35 PM 42.1 °F - 20.3 °F 42% 30.37 in 10.0 mi Calm Calm - N/A   Clear
3:55 PM 42.1 °F - 20.3 °F 42% 30.36 in 10.0 mi Calm Calm - N/A   Clear
4:15 PM 40.5 °F - 20.5 °F 45% 30.36 in 10.0 mi Calm Calm - N/A   Clear
4:35 PM 38.7 °F - 21.0 °F 49% 30.36 in 10.0 mi Calm Calm - N/A   Clear
4:55 PM 38.7 °F - 20.3 °F 48% 30.35 in 10.0 mi Calm Calm - N/A   Clear
5:15 PM 36.9 °F - 20.8 °F 52% 30.35 in 10.0 mi Calm Calm - N/A   Clear
5:35 PM 36.0 °F - 21.2 °F 55% 30.35 in 10.0 mi Calm Calm - N/A   Clear
5:55 PM 34.2 °F - 21.6 °F 60% 30.35 in 10.0 mi Calm Calm - N/A   Clear
6:15 PM 32.9 °F - 21.2 °F 62% 30.35 in 10.0 mi Calm Calm - N/A   Clear
6:35 PM 30.7 °F 27.3 °F 20.8 °F 67% 30.35 in 10.0 mi South 3.5 mph - N/A   Clear
6:55 PM 28.9 °F - 20.8 °F 72% 30.34 in 10.0 mi Calm Calm - N/A   Clear
7:35 PM 30.6 °F - 21.0 °F 68% 30.33 in 10.0 mi Calm Calm - N/A   Clear
7:55 PM 29.5 °F - 21.2 °F 71% 30.33 in 10.0 mi Calm Calm - N/A   Clear
8:15 PM 29.7 °F 26.1 °F 21.7 °F 72% 30.32 in 10.0 mi West 3.5 mph - N/A   Clear
8:35 PM 29.1 °F - 21.6 °F 73% 30.32 in 10.0 mi Calm Calm - N/A   Clear
8:55 PM 28.0 °F - 21.7 °F 77% 30.31 in 10.0 mi Calm Calm - N/A   Clear
9:15 PM 27.7 °F - 21.4 °F 77% 30.31 in 10.0 mi Calm Calm - N/A   Clear
9:35 PM 27.1 °F - 21.6 °F 80% 30.30 in 10.0 mi Calm Calm - N/A   Clear
9:55 PM 27.0 °F - 21.2 °F 79% 30.30 in 10.0 mi Calm Calm - N/A   Clear
10:15 PM 27.5 °F - 21.6 °F 78% 30.29 in 10.0 mi Calm Calm - N/A   Clear
10:35 PM 27.0 °F - 21.7 °F 81% 30.28 in 10.0 mi Calm Calm - N/A   Clear
10:55 PM 27.9 °F - 21.7 °F 78% 30.28 in 10.0 mi Calm Calm - N/A   Clear
11:15 PM 27.0 °F - 20.7 °F 77% 30.28 in 10.0 mi Calm Calm - N/A   Clear
11:55 PM 26.1 °F - 21.6 °F 83% 30.27 in 10.0 mi Calm Calm - N/A   Clear